SCP
0 0 0 0 0 0 0 0 0 0 0 0 0 0 0 0 0 0 0 0 0 0 0 0 0 0 0 0 0 0 0 0 0 0 0 0 0 0 0 0 0 0 0
0 0 0 0 0 0 0 0 0 0 0 0 0 0 0 0 0 0 0 0 0 0 0 0 0 0 0 0 0 0 0 0 0 0 0 0 0 0 0 0 0 0 0
0 0 0 0 0 0 0 0 0 0 0 0 0 0 0 0 0 0 0 0 0 0 0 0 0 0 0 0 0 0 0 0 0 0 0 0 0 0 0 0 0 0 0
0 0 0 0 0 0 0 0 0 0 0 0 0 0 0 0 0 0 0 0 0 0 0 0 0 0 0 0 0 0 0 0 0 0 0 0 0 0 0 0 0 0 0
0 0 0 0 0 0 0 0 0 0 0 0 0 0 0 0 0 0 0 0 0 0 0 0 0 0 0 0 0 0 0 0 0 0 0 0 0 0 0 0 0 0 0
0 0 0 0 0 0 0 0 0 0 0 0 0 0 0 0 0 0 0 0 0 0 0 0 0 0 0 0 0 0 0 0 0 0 0 0 0 0 0 0 0 0 0
0 0 0 0 0 0 0 0 0 0 0 0 0 0 0 0 0 0 0 0 0 0 0 0 0 0 0 0 0 0 0 0 0 0 0 0 0 0 0 0 0 0 0
0 0 0 0 0 0 0 0 0 0 0 0 0 0 0 0 0 0 0 0 0 0 0 0 0 0 0 0 0 0 0 0 0 0 0 0 0 0 0 0 0 0 0
0 0 0 0 0 0 0 0 0 0 0 0 0 0 0 0 0 0 0 0 0 0 0 0 0 0 0 0 0 0 0 0 0 0 0 0 0 0 0 0 0 0 0
0 0 0 0 0 0 0 0 0 0 0 0 0 0 0 0 0 0 0 0 0 0 0 0 0 0 0 0 0 0 -0 -0 0 0 0 0 0 0 0 0 0 0 0
0 0 0 0 0 0 0 0 0 0 0 0 0 0 0 0 0 0 0 0 0 0 0 0 0 0 0 0 -0 -0 -0 -0 0 0 0 0 0 0 0 0 0 0 0
0 0 0 0 0 0 0 0 0 0 0 0 0 0 0 0 0 0 0 0 0 0 0 0 0 0 0 0 -0 -0 -0 0 0 0 0 0 0 0 0 0 0 0 0
0 0 0 0 0 0 0 0 0 0 0 0 0 0 0 0 0 0 0 0 0 0 0 0 0 0 0 0 0 0 0 0 0 -0 -0 0 0 0 0 0 0 0 0
0 0 0 0 0 0 0 0 0 0 0 0 0 0 0 0 0 0 0 0 0 0 0 0 0 0 0 0 0 0 0 0 0 -0 -0 -0 0 0 0 0 0 0 0
0 0 0 0 0 0 0 0 0 0 0 0 0 0 0 0 0 0 0 0 0 0 0 0 0 0 0 0 0 0 0 -0 -0 -0 -0 -0 -0 -0 -0 0 0 0 0
0 0 0 0 0 0 0 0 0 0 0 -0 -0 -0 -0 -0 -0 -0 0 0 0 0 0 0 0 0 0 0 0 0 -0 -0 -0 -0 -0 -0 -0 -0 -0 -0 0 0 0
0 0 0 0 0 0 0 0 0 0 0 0 -0 -0 -0 -0 -0 -0 -0 -0 -0 0 0 0 0 0 0 -0 0 -0 -0 -0 -0 -0 -0 -0 -0 -0 -0 -0 0 0 0
0 0 0 0 0 0 0 0 0 0 0 0 0 -0 -0 -0 -0 -0 -0 -0 -0 -0 -0 0 0 0 -0 -0 -0 -0 -0 -0 -0 -0 -0 -0 -0 -0 -0 -0 0 0 0
0 0 0 0 0 0 0 0 0 0 0 0 0 0 -0 -0 -0 -0 -0 -0 -0 -0 -0 0 0 0 -0 -0 -0 -0 -0 -0 -0 -0 -0 -0 -0 0 0 0 0 0 0
0 0 0 0 0 0 0 -0 0 0 0 0 0 0 -0 -0 -0 -0 -0 -0 -0 -0 -0 -0 -0 -0 -0 -0 -0 -0 -0 -0 -0 -0 0 0 0 0 0 0 0 0 0
0 0 0 0 0 0 0 -0 -0 -0 0 0 0 0 0 -0 -0 -0 -0 -0 -0 -0 -0 -0 -0 -0 -0 -0 -0 0 0 0 0 0 0 0 0 0 0 0 0 0 0
0 0 0 0 0 0 0 -0 -0 -0 -0 -0 0 0 0 0 0 -0 -0 -0 -0 -0 -0 -0 -0 -0 -0 -0 0 0 0 0 0 0 0 0 0 0 0 0 0 -0 -0
0 0 0 0 0 0 0 -0 -0 -0 -0 -0 -0 0 0 0 0 -0 -0 -0 -0 -0 -0 -0 -0 0 0 0 0 0 0 0 0 0 0 0 0 0 0 0 0 -0 0
0 0 0 0 0 0 0 0 0 0 0 0 0 0 0 0 -0 -0 -0 -0 0 -0 -0 -0 -0 -0 0 0 0 0 0 0 0 0 0 0 0 0 0 0 0 0 0
0 0 0 0 0 0 0 0 0 0 0 0 0 0 0 0 -0 -0 -0 -0 -0 -0 -0 -0 -0 -0 -0 0 0 0 0 0 0 0 0 0 0 0 0 0 0 0 0
0 0 0 0 0 0 0 0 0 0 0 0 0 0 0 0 0 -0 -0 -0 -0 -0 -0 -0 -0 -0 -0 0 0 0 0 0 0 0 0 0 0 0 0 0 0 0 0
Wind_Speed
3 3 2 2 2 1 2 2 2 2 1 1 1 1 1 1 1 1 1 3 3 3 5 6 6 6 7 7 7 8 8 8 8 8 8 8 9 9 9 9 9 10 10
3 3 3 2 2 2 2 2 2 2 1 0 1 1 1 1 1 1 1 2 2 1 0 1 2 3 4 4 5 6 6 6 6 6 6 6 6 6 7 7 7 8 9
3 3 2 2 2 2 2 2 1 1 0 0 1 1 1 1 1 2 2 2 2 3 3 2 1 1 2 3 3 3 3 3 3 4 4 4 5 5 5 5 6 6 7
3 3 2 2 2 2 2 2 1 1 1 1 1 1 2 2 2 2 2 3 2 2 4 5 4 4 2 1 2 1 1 1 1 1 1 2 2 2 3 3 4 5 5
3 2 2 1 1 2 2 2 1 1 1 1 2 2 2 2 3 3 3 4 4 4 3 5 6 6 5 5 4 3 2 1 1 1 1 1 1 0 1 1 2 2 3
3 3 2 1 2 2 1 1 2 2 1 2 3 3 3 3 3 4 4 4 4 5 4 4 4 5 9 9 8 7 7 6 5 4 4 4 3 3 3 3 2 2 3
3 3 2 2 2 2 1 2 2 3 2 1 3 3 3 4 5 4 4 4 5 5 5 5 4 4 4 9 10 10 9 8 8 8 7 6 5 4 4 4 4 4 5
5 4 4 2 2 2 2 2 2 2 2 1 2 2 1 1 3 4 4 4 4 4 5 6 6 5 4 4 8 11 11 10 9 8 8 7 6 5 4 4 5 5 5
7 6 6 5 4 4 3 2 2 3 2 2 2 2 3 3 1 2 4 4 4 4 4 5 6 6 6 4 4 9 11 11 10 9 8 8 7 6 5 5 5 5 6
8 7 7 7 6 5 4 4 4 2 2 2 1 2 2 2 3 2 1 3 4 5 5 4 5 5 5 4 6 9 11 12 11 11 10 9 8 7 6 6 6 6 6
9 9 8 7 7 6 6 6 6 6 4 3 2 2 2 2 2 2 2 1 2 3 4 4 3 4 4 4 4 7 10 10 10 10 10 9 9 8 7 7 7 7 7
7 9 8 8 8 7 7 7 7 8 6 7 5 4 2 2 2 2 2 1 1 2 3 3 3 4 3 4 5 9 9 9 9 9 9 9 9 9 9 9 8 9 9
6 8 8 8 7 8 8 8 8 8 7 8 6 5 4 3 2 2 2 2 2 1 2 2 2 3 3 3 4 8 8 9 9 9 9 9 9 9 9 9 9 10 10
6 7 8 8 9 9 8 8 7 7 7 7 8 6 5 4 3 2 2 2 2 2 2 2 2 3 3 3 5 7 5 8 9 9 8 9 9 8 8 9 9 9 9
7 9 8 9 9 9 8 7 7 7 7 7 6 7 5 4 4 3 2 2 2 2 1 2 2 3 3 2 5 4 4 7 8 8 8 8 8 8 8 9 8 8 8
8 8 8 9 9 8 8 7 7 6 7 6 5 7 6 4 4 4 4 3 2 2 2 1 1 2 3 3 5 4 4 8 8 8 8 8 7 7 8 8 8 8 8
8 8 8 8 8 8 7 7 7 7 8 7 6 7 7 6 5 4 4 4 3 2 2 1 1 2 2 3 4 4 4 4 4 8 8 8 7 7 8 8 8 8 8
8 8 8 8 8 8 7 7 7 7 7 7 6 7 6 5 6 5 4 4 3 2 2 1 1 2 2 3 4 4 4 4 4 7 8 8 8 8 8 7 7 7 7
8 7 7 8 7 7 7 6 6 6 6 5 5 6 5 6 6 4 4 4 3 3 2 1 1 1 2 2 3 4 4 4 5 5 6 7 8 8 8 7 7 6 6
7 7 7 7 6 6 6 6 5 5 5 5 5 4 4 4 4 3 3 3 2 2 2 1 1 1 2 2 2 3 4 4 4 4 5 6 7 7 7 7 7 7 6
7 6 7 6 6 5 5 5 4 5 5 5 5 4 4 5 5 3 2 1 1 1 1 1 1 2 2 2 2 2 3 4 3 2 4 4 4 4 4 6 6 7 7
6 6 6 6 6 5 7 7 5 4 4 4 4 4 4 5 7 7 7 5 2 0 0 1 1 2 3 2 2 2 3 3 4 2 4 4 3 4 4 3 6 8 7
5 6 5 6 6 6 8 8 7 4 4 3 3 3 3 4 5 4 6 6 5 3 2 2 2 3 3 2 3 3 2 2 3 4 3 3 3 4 4 4 8 8 8
4 4 4 4 5 6 8 7 6 5 4 3 3 2 2 3 4 5 5 5 5 4 2 2 4 5 5 5 4 3 3 4 5 3 2 3 3 3 4 4 6 8 8
3 3 3 4 4 5 8 7 5 3 3 4 3 3 3 3 5 5 4 5 5 4 3 4 5 6 7 7 4 2 2 2 3 2 0 2 3 4 3 3 4 7 8
2 3 3 4 4 4 7 8 5 2 3 3 4 4 5 6 7 5 2 2 4 4 6 7 6 6 4 3 2 3 2 2 2 3 1 2 2 3 3 2 3 4 5
Wind_Direction
186 187 190 193 197 189 192 198 210 220 244 273 275 265 275 280 284 272 287 285 278 262 246 230 224 226 225 225 226 225 224 224 222 221 218 218 217 218 218 219 218 216 216
185 185 193 200 205 198 199 203 208 207 224 267 323 334 322 324 345 351 350 354 18 16 314 241 234 220 220 222 223 222 219 218 217 214 214 214 217 216 216 219 222 221 220
187 186 189 198 206 192 183 179 185 159 198 122 5 18 25 12 24 33 25 20 10 26 46 52 9 243 222 220 215 214 211 211 216 217 215 217 221 222 222 223 225 226 227
179 176 182 205 193 171 171 172 169 158 149 107 57 40 44 43 44 43 40 35 28 20 28 47 52 47 36 333 248 229 234 228 227 223 238 240 237 228 232 235 240 240 239
154 154 174 195 161 153 161 177 159 157 147 130 99 63 43 37 32 41 44 43 43 40 30 30 42 48 44 36 32 30 13 14 25 31 17 21 12 345 288 273 279 275 268
122 131 139 137 131 126 120 140 138 111 109 114 98 71 50 45 40 38 37 39 41 45 43 37 30 34 42 41 38 42 45 47 49 45 41 37 35 40 34 14 355 337 325
87 96 107 100 100 120 137 144 133 103 73 85 109 91 59 53 52 41 36 40 39 39 47 46 41 35 29 35 38 39 40 43 44 44 41 36 31 29 23 11 352 330 317
64 71 70 74 76 84 74 73 120 123 79 52 133 141 139 52 41 38 39 44 40 44 51 51 48 46 40 32 36 43 39 35 34 32 29 23 23 21 10 352 345 346 339
58 67 72 72 66 69 71 59 75 130 140 80 55 135 163 190 137 48 43 43 39 45 45 49 50 45 44 39 35 39 41 33 30 26 23 18 13 8 2 358 355 349 341
53 56 63 67 69 67 65 56 53 64 116 131 84 51 69 117 149 137 53 38 44 44 41 44 42 41 39 37 35 38 40 39 37 33 27 20 15 10 4 356 348 339 334
53 54 57 61 65 63 61 58 55 57 61 75 75 60 56 51 62 137 138 64 50 40 41 40 39 35 32 32 27 34 37 35 30 26 22 17 11 2 354 346 335 327 325
57 54 60 63 65 64 62 62 61 61 64 71 67 58 60 68 64 90 115 101 75 32 30 32 34 27 21 23 29 32 30 28 22 16 12 8 4 0 355 348 342 334 329
63 52 58 61 62 61 62 65 66 61 59 67 68 64 59 55 60 80 95 93 74 35 16 18 15 19 20 20 16 19 22 18 15 13 9 5 1 358 353 348 343 338 334
72 64 62 61 61 62 61 62 68 65 62 64 64 62 61 47 46 64 103 123 101 56 37 10 347 8 9 8 10 16 11 9 9 7 4 360 357 353 348 343 337 333 331
76 69 67 65 61 61 60 62 64 62 64 63 61 60 58 47 45 49 62 93 126 110 46 351 340 346 355 1 6 3 356 355 357 355 352 349 347 345 341 338 335 334 330
72 70 65 64 62 60 60 64 65 62 67 61 62 62 54 45 46 46 52 56 71 114 113 341 316 326 341 360 3 355 344 347 345 343 345 344 342 341 340 339 339 337 333
69 69 66 66 63 58 57 63 63 61 66 61 58 63 56 48 51 44 47 53 56 78 105 23 318 328 339 347 343 342 339 337 331 334 339 342 342 342 341 339 338 336 334
66 67 67 66 64 58 55 59 62 60 65 64 60 61 54 54 51 44 47 49 48 54 97 72 344 334 325 327 328 332 339 341 330 326 337 342 345 344 342 339 338 336 333
68 66 67 65 61 57 55 55 60 60 59 62 62 63 56 57 50 43 47 46 40 48 64 76 339 321 311 327 333 331 333 334 331 332 340 341 340 341 339 341 339 337 336
71 68 67 64 60 57 53 52 58 59 55 53 55 58 54 55 49 38 43 37 37 42 44 39 355 330 312 317 324 332 336 338 330 333 337 332 335 342 344 344 344 346 344
68 66 65 57 50 49 42 48 55 61 57 52 47 44 45 53 48 35 28 16 27 36 23 19 359 333 325 333 338 327 319 323 313 330 325 326 335 338 343 344 346 343 339
62 61 58 56 48 40 38 51 61 62 56 52 43 30 35 40 30 25 22 21 15 324 334 326 317 312 303 295 301 314 319 332 322 341 329 316 333 328 332 335 337 339 343
62 58 50 51 45 30 37 48 57 63 56 48 38 25 22 20 18 7 6 13 12 358 239 210 254 268 275 279 300 304 305 304 291 310 326 305 321 319 328 333 340 346 350
60 55 47 43 42 29 33 45 56 57 51 37 24 10 358 348 356 359 358 360 355 349 326 257 250 264 266 268 254 261 293 296 281 270 260 293 316 317 321 327 346 356 357
62 55 52 45 42 21 24 38 50 43 36 19 6 0 353 342 339 354 4 355 349 344 336 324 291 280 276 272 247 221 267 308 323 319 272 288 310 315 311 315 344 359 1
78 67 57 43 38 23 18 29 36 33 21 359 349 351 358 350 340 345 346 338 336 329 336 338 339 338 329 320 240 219 247 273 302 302 295 290 307 326 320 317 330 349 359